Regional Weather Roundup
Issued by NWS Columbia, SC

Home | Current Version | Previous Version | Text Only | Print | Product List | Glossary On
Versions: 1 2 3 4 5 6 7 8 9 10 11 12 13 14 15 16 17 18 19 20 21 22 23 24 25 26 27 28 29 30 31 32 33 34 35 36 37 38 39 40 41 42 43 44 45 46 47 48 49 50
000
ASUS42 KCAE 122110
RWRCAE
REGIONAL WEATHER ROUNDUP
NATIONAL WEATHER SERVICE COLUMBIA SC
500 PM EDT SAT JUL 12 2014

NOTE: "FAIR" INDICATES FEW OR NO CLOUDS BELOW 12,000 FEET WITH NO
SIGNIFICANT WEATHER AND/OR OBSTRUCTIONS TO VISIBILITY.

NOT ALL STATIONS ARE QUALITY CONTROLLED BY THE NATIONAL
WEATHER SERVICE. USE DATA WITH CAUTION...ESPECIALLY
DEWPOINT OBSERVATIONS.

SCZ001>056-GAZ040-063>065-077-122200-
...UPSTATE SOUTH CAROLINA...

CITY           SKY/WX    TMP DP  RH WIND       PRES   REMARKS
ANDERSON       SUNNY     91  64  40 E6        30.16F
LIBERTY        FAIR      90  86  89 S6        30.17F HX 120
SPARTANBURG    FAIR      91  63  38 CALM      30.17F
CLEMSON        SUNNY     90  61  37 NE5       30.18F
GREENVILLE     MOSUNNY   89  64  43 S9        30.18F
GREENWOOD      SUNNY     92  63  38 VRB6      30.16F
GREER          MOSUNNY   88  66  48 E7        30.16F
ROCK HILL      SUNNY     89  63  41 CALM      30.17F
CHESTER        FAIR      93  64  38 S8        30.17F HX  95
LAURENS        FAIR      91  61  35 E8        30.17F


...CENTRAL SOUTH CAROLINA...

CITY           SKY/WX    TMP DP  RH WIND       PRES   REMARKS
COLUMBIA APT   MOSUNNY   93  66  40 E9        30.13F HX  96
COLUMBIA OWENS SUNNY     92  64  39 VRB6      30.14F
DARLINGTON     SUNNY     91  64  40 N6        30.16F
FLORENCE       MOSUNNY   92  67  43 VRB3      30.15S HX  95
ORANGEBURG     PTSUNNY   87  72  60 S8        30.15R
NEWBERRY       FAIR      91  64  40 NE3       30.18F
AIKEN          MOCLDY    91  68  46 NE9       30.18R HX  95
BARNWELL       FAIR      84  72  65 S9        30.15S
MANNING        FAIR      88  72  58 S8        30.15S
CAMDEN         FAIR      90  64  43 E6        30.16F
LANCASTER        N/A     90  66  45 NE3       30.17F
WINNSBORO      FAIR      91  63  38 E5        30.16F


...EASTERN AND COASTAL SOUTH CAROLINA...

CITY           SKY/WX    TMP DP  RH WIND       PRES   REMARKS
MYRTLE BEACH   MOSUNNY   82  73  74 SE12      30.16F
N MYRTLE BCH   SUNNY     82  72  71 S5        30.16F
CONWAY         FAIR      86  72  62 E6        30.16F
MARION         FAIR      86  70  58 CALM      30.15S
HARTSVILLE     FAIR      90  28  11 E5        30.17F
FLORENCE       MOSUNNY   92  67  43 VRB3      30.15S HX  95
DARLINGTON     SUNNY     91  64  40 N6        30.16F
CHARLESTON APT MOSUNNY   86  72  62 CALM      30.15F
WALTERBORO     MOCLDY    82  70  65 E3        30.16F
BEAUFORT       MOSUNNY   89  69  51 VRB3      30.14F


...EASTERN GEORGIA...

CITY           SKY/WX    TMP DP  RH WIND       PRES   REMARKS
AUGUSTA BUSH F MOSUNNY   94  69  44 SE10      30.11S HX  99
AUGUSTA DANIEL CLOUDY    92  65  40 E7        30.13F
THOMSON        SUNNY     94  70  45 NE6       30.17F HX  99
WASHINGTON     FAIR      97  70  41 E6        30.14F HX 103
CLAXTON        FAIR      86  75  70 SE9       30.13S HX  95
SYLVANIA       MOCLDY    87  74  63 SE10      30.14F HX  95
STATESBORO     CLOUDY    80  74  80 CALM      30.14S
SAVANNAH       PTSUNNY   84  70  62 S6        30.15F


...SOUTHERN NORTH CAROLINA...

CITY           SKY/WX    TMP DP  RH WIND       PRES   REMARKS
CHARLOTTE      MOSUNNY   91  55  29 SE8       30.17F
MONROE         SUNNY     87  65  47 S5        30.16F
WADESBORO      PTCLDY    90  62  38 E6        30.16F HAZE
ROCKINGHAM       N/A     90  64  43 CALM      30.16F
RUTHERFORDTON  MOSUNNY   87  66  50 CALM      30.19F
ASHEVILLE      PTSUNNY   82  64  54 S9        30.25S

$$


USA.gov is the U.S. government's official web portal to all federal, state and local government web resources and services.